Location: Unspecified
(0.0000°N, 0.0000°E)
Time: 22:35:53
(UTC+00:00)

Alouette 1 - Pass Details

Date: 25 October 2021
Orbit: 985 x 1019 km, 80.5° (Epoch: 07 December)

Event Time Altitude Azimuth Distance (km) Brightness Sun altitude
Rises 17:59:13 0° 6° (N) 3,736 8.9 -3.7°
Reaches altitude 10° 18:01:53 10° 12° (NNE) 2,785 8.2 -4.4°
Maximum altitude 18:07:59 47° 84° (E) 1,315 6.3 -5.8°
Drops below altitude 10° 18:14:04 10° 156° (SSE) 2,773 8.3 -7.3°
Sets 18:16:41 0° 162° (SSE) 3,719 9.0 -8.0°
